GFSNGP_sfc_30mbdewp_000.txt.gz
Dewpoint
32 31 31 30 29 28 27 27 25 26 25 25 26 27 29 32 33 34 33 35 38 38 37 38 39 39 32 29 27 26 24 23 26 32 31 30 26 26 26 26 25 24 21 20
33 33 31 29 31 30 28 26 26 27 26 28 26 28 31 33 34 35 37 39 39 37 37 39 39 39 29 27 25 24 26 35 37 35 30 26 25 25 24 24 21 19 20 20
30 31 32 29 28 29 29 27 26 25 26 27 27 31 33 36 35 38 39 39 39 38 39 39 38 34 32 32 37 38 39 37 34 34 27 24 23 23 23 20 20 19 19 20
31 31 24 26 28 27 27 28 28 26 26 28 30 36 36 38 39 39 41 40 39 40 38 38 37 36 38 40 37 36 35 35 34 25 22 22 23 22 19 18 18 18 19 20
31 29 29 29 28 28 27 28 28 29 34 35 36 39 38 39 40 42 40 39 39 37 38 37 37 39 39 39 38 37 31 24 21 20 21 22 20 18 18 18 18 19 19 21
32 28 24 26 28 29 29 27 37 37 36 38 38 35 37 39 40 40 39 38 35 37 37 37 38 38 35 34 32 23 22 21 20 21 20 18 17 17 17 17 16 20 20 24
31 29 29 31 30 33 29 33 39 40 40 39 37 40 40 39 40 40 38 33 37 36 36 37 35 33 28 22 22 20 19 19 20 20 16 16 17 16 15 16 19 21 25 24
32 29 26 32 33 34 35 39 40 41 40 40 38 38 38 38 39 37 34 36 36 36 35 34 32 31 22 16 17 19 20 20 19 18 18 17 17 15 16 17 18 22 21 22
30 29 32 34 34 37 38 39 40 41 38 38 37 36 37 38 36 35 36 36 36 35 34 34 29 17 17 20 18 19 19 19 19 20 19 17 15 16 16 16 20 21 22 19
33 32 32 35 37 38 39 39 40 39 39 38 34 30 29 33 35 34 35 35 36 34 31 26 23 19 20 20 21 20 20 21 21 21 19 17 17 17 15 18 21 22 20 20
34 35 35 37 38 38 39 39 40 40 39 28 26 25 27 34 33 35 35 35 34 31 29 24 23 22 21 23 23 22 23 22 22 22 19 17 18 16 17 21 21 20 22 23
33 35 37 37 38 38 37 40 39 31 26 26 26 31 34 33 33 34 34 34 30 29 22 21 22 22 23 24 25 25 24 24 24 21 20 20 18 18 19 21 21 22 22 25
35 35 35 36 36 37 39 38 29 24 26 30 35 34 33 33 33 31 31 34 30 21 20 23 23 23 24 27 27 26 25 24 22 20 20 20 20 19 19 21 21 21 22 24
35 36 36 36 36 35 29 25 24 26 30 31 33 33 33 32 34 32 30 23 21 20 20 24 23 21 24 24 26 25 24 23 23 21 21 21 20 21 20 20 19 20 22 20
35 35 33 30 28 24 24 25 25 29 32 32 32 34 33 32 31 27 24 22 24 21 20 23 22 24 26 26 24 24 24 22 20 21 21 21 21 19 19 19 20 20 21 19
34 29 27 25 24 23 24 25 28 31 34 33 33 33 31 28 26 25 23 25 22 24 25 25 26 28 27 26 25 24 23 18 18 20 21 20 19 18 18 19 20 21 20 19
27 25 24 24 23 24 25 27 33 34 33 32 31 28 25 25 25 28 28 28 27 26 27 28 28 29 27 26 24 23 24 22 21 22 20 20 20 17 19 19 20 20 20 20
22 23 23 24 25 26 29 34 34 33 33 30 27 26 26 25 25 26 28 27 26 27 28 30 31 28 27 26 24 23 24 23 22 21 21 21 19 20 19 19 19 20 20 19
23 22 22 23 28 31 32 35 34 33 31 28 24 21 24 26 27 26 26 26 26 27 30 30 29 27 27 25 22 23 24 23 23 21 21 19 19 19 18 19 18 20 19 18
22 23 26 29 32 32 32 33 33 31 29 25 26 26 28 29 27 26 27 26 28 29 29 28 27 27 27 25 23 22 26 23 23 20 21 20 20 18 18 17 18 18 18 18
30 32 32 32 32 32 33 31 27 23 28 26 23 25 25 27 29 28 26 26 30 30 29 29 29 29 29 26 23 26 24 24 22 21 20 20 19 18 18 17 18 17 17 17
29 31 32 33 33 32 33 30 30 28 26 27 27 26 28 29 27 26 26 26 25 27 27 26 28 30 29 27 26 26 25 24 22 21 20 19 17 17 17 17 17 17 16 16
33 34 34 34 33 33 34 32 30 28 28 29 29 29 28 27 27 25 24 27 26 26 26 26 29 29 27 26 26 26 25 24 22 21 20 19 18 15 16 15 15 15 14 15
33 33 34 35 35 33 30 31 29 30 30 30 30 29 28 28 27 29 28 26 27 28 27 29 27 27 24 25 25 25 25 24 23 21 20 15 17 16 16 15 14 15 14 13
33 33 32 32 31 31 31 28 30 30 30 30 31 31 30 28 26 28 27 28 28 28 28 28 26 24 24 25 26 26 25 24 24 22 20 19 17 16 16 16 15 13 13 12
33 32 31 32 31 32 29 28 28 30 30 30 31 30 28 27 26 27 29 30 30 27 28 29 29 27 26 26 26 26 24 24 21 19 19 18 16 15 16 14 13 14 14 12
31 32 32 31 32 32 29 30 30 30 30 30 28 28 28 27 26 26 27 26 26 25 29 29 29 28 27 26 27 26 24 24 23 22 21 18 17 16 16 15 14 13 13 12

GFSNGP_sfc_30mbdewp_003.txt.gz
Dewpoint
33 33 33 32 31 31 30 29 27 27 27 27 26 29 32 35 36 36 38 39 39 39 39 38 39 39 34 31 32 31 25 25 30 32 31 29 29 26 27 27 26 26 26 23
33 34 34 31 31 30 30 29 29 27 26 28 26 35 36 36 37 38 38 39 38 39 39 39 39 36 35 35 35 36 36 37 37 35 34 32 27 27 27 25 25 21 20 21
30 34 32 29 26 28 28 27 28 27 29 36 35 36 37 37 38 39 39 39 39 39 39 39 39 36 36 37 38 38 38 37 37 37 36 34 30 25 24 22 20 18 18 19
31 32 25 27 29 27 29 29 31 35 37 38 39 40 39 38 39 38 38 40 39 38 38 38 37 37 38 39 40 37 36 36 36 37 35 25 23 22 20 18 17 16 17 21
30 29 29 30 29 29 27 27 37 36 36 37 40 39 38 39 40 39 39 40 38 38 38 37 36 37 38 38 38 38 36 33 25 23 21 20 19 17 16 15 15 17 20 20
30 26 23 24 29 34 32 28 37 39 40 39 40 34 34 39 40 39 40 39 37 37 36 36 36 37 35 31 34 21 19 20 21 20 19 16 16 15 16 16 16 19 20 25
29 28 28 30 31 37 27 30 38 42 41 41 38 38 40 38 38 38 37 36 36 35 35 36 33 29 24 15 17 19 21 21 20 19 17 17 17 16 14 16 18 20 21 21
31 29 24 33 33 30 33 38 38 39 40 38 40 40 37 35 36 36 35 35 35 35 35 33 31 24 12 15 19 20 20 20 20 20 19 18 15 15 16 17 19 20 21 20
30 28 32 34 33 35 35 36 39 40 40 41 40 37 31 28 34 34 34 34 35 35 34 31 20 18 21 21 22 22 21 22 22 21 21 17 16 16 18 19 20 20 20 19
32 32 32 34 35 36 37 39 41 42 42 37 35 34 28 33 33 33 34 34 35 32 29 28 20 20 21 24 24 22 23 23 23 22 20 18 18 19 18 18 18 20 19 20
33 34 34 35 35 37 40 43 43 41 37 35 31 33 33 32 32 33 33 34 34 30 29 24 23 23 24 24 24 24 24 24 24 22 19 20 20 19 19 19 21 21 21 23
32 34 35 36 38 39 40 40 39 37 31 33 34 32 31 31 33 32 32 34 33 29 22 22 23 23 24 25 24 24 24 24 24 21 20 20 20 19 20 21 22 20 22 25
37 37 37 39 39 37 36 35 29 28 30 32 34 32 31 31 31 33 34 32 25 20 21 23 22 22 25 25 26 25 23 23 23 23 20 20 21 20 19 20 20 20 22 23
37 38 39 41 37 32 29 28 27 28 33 32 31 32 32 32 32 31 28 23 22 21 22 20 21 22 25 26 26 24 23 23 22 20 18 19 19 20 18 18 17 19 23 22
37 38 35 31 27 25 25 26 27 30 33 32 33 32 31 29 28 26 25 24 21 21 24 22 19 20 27 27 25 24 24 24 20 18 19 19 20 18 17 17 17 20 20 18
32 30 28 27 27 27 26 27 30 33 34 33 33 32 31 24 23 22 26 25 21 17 22 24 24 25 28 27 26 25 24 20 19 20 20 20 19 16 18 17 18 20 18 17
32 32 28 25 26 26 28 30 33 33 33 32 31 26 24 24 22 24 25 28 27 25 25 26 26 29 30 27 25 23 23 23 22 22 22 21 19 19 20 17 17 19 18 19
27 25 24 23 24 28 30 30 31 33 32 32 28 25 24 20 19 23 26 26 25 24 27 28 29 27 27 28 24 23 23 24 22 21 23 18 18 19 17 17 17 18 18 18
21 21 23 25 29 31 30 30 32 33 31 30 24 18 22 27 28 26 25 25 25 26 28 28 27 26 27 25 24 22 23 24 23 21 21 20 20 17 18 18 17 17 18 16
25 27 27 30 32 32 32 31 31 31 30 27 24 23 26 27 27 27 26 26 27 28 28 28 28 27 28 28 24 23 24 22 22 23 20 19 18 19 17 18 17 16 16 16
28 29 30 31 32 31 31 32 32 29 26 29 24 23 23 25 28 26 24 23 25 25 25 25 25 28 29 28 26 25 24 24 23 21 20 19 16 17 17 16 17 16 14 15
30 30 31 32 33 32 32 33 32 29 29 26 27 25 27 27 27 25 25 25 24 25 24 24 24 29 28 26 26 27 25 24 22 21 19 18 16 16 16 14 16 15 15 14
31 31 32 33 33 33 33 33 32 30 27 27 28 28 28 27 26 25 23 25 24 25 24 24 28 27 26 25 24 25 25 25 22 21 20 18 17 13 16 14 16 13 13 15
28 31 32 33 33 32 31 31 31 30 27 29 29 29 28 27 25 29 27 26 27 26 26 27 26 25 24 23 26 26 25 24 24 22 21 16 17 15 15 15 15 12 13 14
27 30 31 32 31 30 31 31 30 29 30 29 30 30 29 28 25 25 24 24 25 27 23 27 27 25 23 24 25 26 25 24 23 22 22 20 16 15 17 14 12 13 13 12
28 28 30 32 30 30 32 31 29 29 30 29 31 31 29 26 25 24 25 29 25 25 24 28 29 28 26 25 26 26 25 23 22 19 19 20 16 14 14 13 13 13 11 10
28 29 31 31 31 31 32 32 31 31 31 30 29 29 28 26 24 24 23 24 24 23 24 26 27 29 28 27 26 26 25 23 23 22 22 20 19 15 14 13 13 12 10 10

GFSNGP_sfc_30mbdewp_009.txt.gz
Dewpoint
31 31 32 32 32 33 32 32 30 30 30 30 31 36 37 37 38 38 38 39 39 39 38 40 40 39 39 37 37 38 38 33 29 28 30 29 35 37 34 30 30 29 26 22
31 33 33 32 33 33 33 33 32 31 28 29 37 38 38 38 38 38 38 39 39 37 38 40 40 39 38 37 37 39 38 37 37 38 38 38 37 35 35 34 28 21 17 17
26 31 31 24 27 30 31 29 28 26 28 35 36 37 38 38 39 39 37 39 37 37 39 40 39 38 37 36 38 38 38 38 38 38 39 37 36 34 26 20 18 16 16 18
28 31 23 23 30 29 29 29 30 30 34 36 37 38 39 39 40 38 39 36 36 39 40 37 37 36 36 37 36 35 28 24 26 26 25 24 21 18 17 17 16 16 18 21
29 27 26 27 26 27 27 27 32 33 36 35 36 39 38 38 40 36 35 35 38 37 36 35 35 34 25 22 22 22 23 23 24 24 23 19 17 17 17 15 16 18 22 22
27 25 23 23 25 30 35 30 34 37 35 34 36 34 34 41 38 37 36 37 35 35 34 35 35 22 27 26 23 22 26 24 22 20 19 19 18 16 16 17 19 21 20 19
27 25 26 28 30 32 28 27 32 35 35 35 35 37 40 38 37 36 36 35 35 34 35 35 30 23 21 19 23 22 22 22 22 22 22 20 17 17 18 19 20 17 16 17
27 25 23 32 33 29 31 33 35 36 36 38 40 39 37 34 35 33 34 33 33 34 34 33 23 21 19 20 22 23 22 22 23 23 21 19 18 19 19 19 17 18 18 17
27 26 30 31 33 34 36 36 36 39 41 41 38 37 33 33 34 32 31 33 33 34 34 31 23 19 21 23 22 22 22 22 24 24 22 20 20 19 18 18 18 18 20 19
31 32 32 34 36 36 37 37 42 39 38 36 35 33 30 33 33 31 31 32 33 34 34 34 30 22 22 23 24 23 22 22 23 23 21 21 20 20 20 18 19 20 20 19
34 36 37 37 36 38 41 40 37 37 37 36 33 31 30 32 32 30 30 32 35 34 32 30 29 22 24 24 24 23 23 23 22 22 22 22 20 20 21 22 21 20 19 21
34 36 35 35 41 40 38 37 37 35 33 32 31 30 32 33 32 31 30 33 34 32 31 24 24 24 23 25 25 24 23 23 23 22 22 22 19 20 21 21 22 20 21 20
38 38 39 42 38 37 36 35 33 36 36 35 33 33 33 32 32 32 34 32 30 29 27 22 23 24 23 24 25 24 24 24 23 22 22 21 20 19 17 17 18 19 20 18
39 40 39 37 35 32 30 31 31 30 30 32 33 33 32 32 32 30 27 25 25 23 22 24 23 22 23 25 25 24 23 22 20 20 22 22 20 20 16 17 14 16 18 17
37 38 37 35 33 31 29 30 31 31 31 31 32 32 32 31 31 27 24 26 26 24 23 24 24 24 26 28 26 25 26 23 22 22 21 20 21 19 17 17 14 15 15 15
33 33 33 29 29 25 25 26 28 30 30 30 31 31 31 29 25 24 24 26 23 23 25 25 25 27 28 28 27 27 26 23 22 21 21 22 18 17 18 16 15 15 14 15
28 27 22 20 20 20 22 28 30 30 30 30 30 29 30 28 24 20 23 24 24 25 26 26 26 27 27 29 28 26 23 23 24 22 21 21 18 17 17 16 14 14 14 16
24 24 25 25 23 23 25 29 30 30 30 31 30 30 29 27 25 20 25 25 24 26 27 26 25 26 26 27 26 23 22 24 24 21 20 19 18 17 16 15 14 14 13 14
26 26 27 28 27 27 28 29 30 30 29 29 30 29 27 26 23 25 25 25 24 23 24 24 24 23 26 28 27 25 23 23 21 21 19 18 16 16 16 15 14 13 13 12
24 26 29 29 29 28 27 29 31 30 30 29 29 28 27 27 24 25 26 24 23 23 23 22 23 23 24 26 25 24 23 23 22 21 18 18 15 16 14 15 14 13 13 12
22 24 26 27 28 28 27 28 30 31 30 30 29 29 28 26 23 26 25 24 23 23 22 24 23 24 27 26 24 25 24 24 23 20 19 18 15 14 13 13 14 12 12 12
25 26 26 26 26 26 26 26 28 31 31 30 30 29 26 26 26 26 26 25 23 24 24 23 24 26 25 24 24 24 25 25 24 20 19 17 15 14 13 12 14 13 12 12
26 26 27 26 26 26 26 27 30 31 30 30 31 28 27 27 27 25 25 23 25 24 25 25 26 27 25 23 24 24 25 25 24 21 20 19 17 13 13 13 13 12 13 12
27 27 27 27 26 25 26 27 28 29 28 29 30 29 29 27 27 26 26 25 25 25 26 27 26 27 25 24 24 24 24 25 24 21 20 19 17 15 13 12 14 12 12 12
27 27 27 27 27 27 27 28 28 28 28 29 28 30 30 29 27 24 23 22 25 27 26 25 26 27 26 25 24 24 24 25 23 21 20 19 18 17 13 13 13 10 11 10
27 28 28 28 28 28 29 29 29 30 29 28 28 29 30 29 28 24 23 23 25 24 25 26 26 26 27 26 25 24 24 25 23 21 20 18 17 17 15 13 11 10 10 10
28 28 28 28 28 29 30 30 30 30 31 29 28 29 30 29 27 24 23 23 23 25 25 25 25 26 25 24 24 25 25 24 23 22 20 19 18 17 16 14 10 9 10 8

GFSNGP_sfc_30mbdewp_015.txt.gz
Dewpoint
30 30 31 30 30 31 31 31 29 27 28 29 32 34 34 36 37 37 37 39 39 36 34 35 38 38 37 36 37 38 38 38 37 37 38 38 36 32 33 32 32 35 32 23
30 31 31 29 30 31 32 32 32 32 31 33 34 37 36 35 36 36 39 38 35 33 32 34 37 35 34 35 36 38 36 34 31 31 31 29 30 31 32 30 22 20 19 19
20 29 28 22 23 28 28 30 29 26 26 33 33 35 35 35 37 38 36 35 32 30 33 37 34 33 34 34 34 31 30 29 30 30 30 27 25 21 21 20 19 18 19 20
27 28 17 22 29 29 28 28 30 29 30 33 34 35 36 38 37 37 35 33 31 32 37 35 32 35 31 28 29 28 28 30 30 25 22 22 21 20 19 19 18 18 20 21
27 25 26 25 25 26 27 26 28 31 33 34 35 36 35 38 37 36 35 34 31 36 35 32 34 34 23 23 25 27 27 23 22 23 21 21 20 19 19 19 19 20 19 18
28 25 23 25 26 30 33 26 33 35 35 36 35 33 36 37 37 31 32 30 34 35 33 32 34 35 31 27 28 24 23 23 22 22 22 21 20 19 20 20 19 20 18 19
28 26 28 30 30 31 28 29 34 35 35 36 35 37 37 36 34 32 31 30 35 33 31 32 34 34 30 24 21 23 24 23 21 22 22 21 20 20 19 19 21 22 22 22
27 25 22 29 30 29 32 36 35 37 36 39 38 37 36 34 34 31 31 31 34 31 31 33 34 30 24 24 26 27 25 22 21 22 22 20 20 20 19 20 21 22 21 21
29 29 30 30 32 34 36 37 38 39 38 38 36 35 33 33 32 33 32 33 33 31 32 34 34 32 27 29 32 31 24 22 22 22 22 21 21 22 20 20 21 20 19 18
32 33 33 35 37 40 41 40 39 39 38 37 36 34 32 33 33 32 32 32 32 31 31 33 33 31 31 30 26 24 23 22 23 23 23 23 23 23 20 21 21 19 19 18
34 36 36 36 39 41 40 40 39 38 37 35 34 33 34 33 32 32 32 32 32 32 32 33 33 31 29 26 25 24 24 24 24 24 23 23 22 21 21 23 21 20 18 17
33 36 37 40 41 41 38 36 35 36 32 30 33 33 33 31 31 32 32 32 31 31 30 26 26 24 25 25 25 25 24 24 25 24 24 22 20 20 21 22 21 20 18 18
38 40 41 40 39 36 35 34 29 26 27 27 30 31 31 31 31 31 30 29 28 27 25 24 24 23 24 26 26 25 25 25 25 24 23 21 21 20 19 19 19 18 18 17
39 39 37 37 33 32 24 22 24 24 25 27 29 30 30 31 31 29 28 28 28 25 26 25 25 26 27 28 28 26 25 24 25 25 23 22 22 20 19 18 17 16 16 16
34 34 31 26 24 23 22 23 22 21 22 25 29 30 30 30 29 29 28 28 27 25 24 25 25 25 27 27 27 26 27 26 25 25 24 22 22 20 19 18 17 16 15 13
26 26 25 23 23 24 24 24 22 22 23 26 28 29 30 30 29 30 29 28 24 24 25 25 25 24 25 27 27 26 25 25 23 25 23 22 21 19 18 17 16 15 14 13
24 22 23 24 24 25 26 26 26 26 26 28 28 29 29 29 28 28 28 26 24 24 24 26 26 24 24 25 26 24 25 25 24 22 21 21 20 19 18 17 16 15 14 14
26 25 25 24 24 25 26 27 28 27 27 27 28 29 28 27 28 28 27 27 24 24 25 27 25 24 23 26 27 26 25 24 24 22 22 21 20 19 18 17 16 15 14 14
23 23 24 24 25 26 26 26 26 27 26 26 26 27 28 29 30 29 28 25 24 24 25 23 23 23 22 25 26 24 24 24 24 23 22 20 20 19 17 17 16 16 14 13
23 24 25 25 25 25 25 26 26 26 27 26 26 26 28 30 29 29 28 25 26 26 24 23 22 23 24 25 25 24 24 24 24 24 22 21 20 19 18 15 15 16 15 14
23 25 25 25 25 25 25 25 25 26 27 26 25 25 28 30 30 30 25 24 26 27 24 23 23 24 25 25 24 24 24 24 25 24 23 21 20 20 19 17 16 16 15 14
25 25 25 25 25 25 26 27 27 26 25 25 25 27 29 30 30 28 26 26 27 26 24 24 24 25 26 27 24 25 25 25 24 25 23 22 20 20 19 18 16 16 16 15
25 25 26 25 25 27 27 26 26 26 26 26 27 27 28 29 30 27 26 27 27 26 25 26 25 26 26 28 26 25 24 24 24 24 24 22 21 20 19 18 18 16 16 15
25 26 26 26 26 26 26 27 27 27 27 28 28 27 27 28 28 28 28 27 24 25 26 26 27 26 26 28 27 26 26 25 25 25 24 20 20 19 18 18 16 17 15 13
26 26 26 26 27 27 27 28 28 27 27 28 30 31 29 29 28 28 27 27 25 24 26 25 26 26 26 27 26 25 24 24 24 25 24 22 21 20 20 18 16 16 16 14
26 27 27 27 26 26 27 28 27 27 27 28 29 32 30 29 28 28 26 25 24 24 25 26 27 27 26 26 25 24 24 24 24 23 23 23 22 21 20 19 18 16 16 14
26 25 26 26 26 26 26 28 29 28 29 29 30 32 30 28 29 29 26 26 26 25 25 25 27 27 26 26 24 23 23 23 22 21 22 22 22 21 21 20 20 18 17 14

GFSNGP_sfc_30mbdewp_018.txt.gz
Dewpoint
26 25 25 27 26 25 25 27 26 26 23 24 26 29 31 35 34 34 34 36 37 36 33 29 31 35 33 30 31 34 34 32 35 35 34 35 32 29 28 28 27 25 22 21
28 28 27 27 26 26 28 28 27 27 27 28 29 33 35 34 34 34 37 36 35 32 28 28 33 33 29 29 31 32 30 30 30 29 28 28 26 24 22 21 19 20 19 19
26 28 28 25 27 26 28 27 27 25 25 29 31 33 34 35 35 37 37 35 32 30 28 32 34 29 29 29 29 30 29 28 28 29 26 23 21 18 18 19 19 19 19 19
30 30 23 26 28 27 26 27 26 27 28 32 33 35 34 37 37 37 37 30 27 27 29 33 30 28 29 26 26 28 28 28 25 24 23 20 17 17 18 18 19 19 19 20
29 26 25 25 26 27 26 27 29 29 32 34 36 35 32 38 37 38 34 28 27 27 31 33 29 27 29 29 27 27 27 26 26 23 20 16 17 18 18 18 19 19 19 19
30 26 22 25 28 30 32 25 34 35 36 37 39 35 34 37 37 33 30 28 26 27 32 32 28 28 29 27 25 25 25 26 25 22 18 17 19 19 20 19 19 20 21 22
29 28 28 30 30 32 28 30 35 37 37 39 38 37 38 38 35 29 29 28 26 28 30 29 29 30 29 23 20 22 23 26 25 21 18 19 20 21 20 20 21 24 26 24
30 27 26 30 30 32 35 36 37 39 39 39 38 37 36 32 29 29 28 28 26 26 26 28 29 30 27 22 20 22 25 27 24 20 20 20 21 21 21 21 21 24 24 24
29 29 31 33 33 36 37 38 40 40 39 36 33 30 29 27 26 25 27 27 27 26 26 27 27 29 28 26 26 27 29 31 25 21 21 22 22 22 22 20 21 22 20 20
32 31 32 35 37 39 41 40 40 38 34 32 29 27 26 23 22 25 27 28 27 27 26 26 27 30 31 31 31 31 27 29 24 22 22 22 23 21 19 20 22 20 19 18
33 35 36 36 41 41 40 40 35 32 29 26 22 21 21 22 23 23 25 26 26 23 23 23 25 26 28 27 25 24 24 25 24 24 25 24 22 20 20 21 22 19 17 16
34 37 39 40 40 41 37 31 29 26 20 19 19 18 20 20 20 22 24 26 24 22 22 23 24 26 25 24 25 25 24 24 25 26 25 24 21 20 22 21 21 19 18 18
38 39 40 40 38 33 31 25 20 20 20 19 17 19 21 22 22 26 24 23 23 24 24 24 26 26 24 28 29 28 27 27 26 25 25 22 21 20 19 19 20 19 18 16
38 39 37 36 33 25 22 22 22 20 17 16 19 22 23 23 23 23 23 25 28 27 26 26 26 24 27 26 25 28 27 26 26 25 24 23 22 21 21 19 18 16 17 15
30 31 29 26 25 23 22 19 17 15 18 21 23 25 26 27 26 26 28 30 30 29 27 27 25 27 25 25 25 25 25 23 26 26 25 23 23 21 20 19 17 15 14 11
27 25 23 22 20 17 14 14 17 20 21 21 22 24 25 26 27 28 29 30 29 28 27 27 27 28 24 23 22 21 21 26 25 24 22 21 21 20 19 18 16 15 14 12
25 23 20 17 15 17 18 20 22 21 24 25 26 29 28 29 30 29 30 30 29 29 28 28 28 27 23 22 22 22 22 22 24 23 21 20 20 20 19 18 16 15 14 15
20 18 17 18 18 21 22 23 25 27 27 27 29 29 28 29 29 29 31 31 30 28 28 28 29 25 23 22 24 23 23 24 24 22 21 21 21 20 19 18 16 15 15 13
17 17 19 22 24 25 25 25 27 28 29 29 29 29 29 29 29 31 32 30 29 27 27 28 24 24 23 25 25 22 22 24 23 22 23 22 22 21 20 19 18 16 15 14
18 20 23 25 26 27 27 28 29 28 28 29 29 29 28 29 30 30 32 30 30 29 29 26 24 24 26 25 25 21 23 23 23 23 24 22 22 21 21 20 19 17 16 15
23 24 27 27 27 28 28 28 28 28 29 29 28 28 28 28 30 32 31 29 31 30 29 26 24 22 23 23 23 23 24 25 25 24 24 23 21 21 21 21 20 19 17 16
23 26 27 27 27 28 29 30 30 30 29 28 28 28 28 28 30 31 32 30 30 28 28 26 25 24 22 25 23 25 24 24 24 24 24 24 22 21 21 21 20 19 17 16
25 27 27 28 28 28 29 29 29 30 29 29 29 29 29 30 30 29 28 32 29 30 29 28 28 26 26 27 28 27 25 24 24 24 24 23 22 22 21 20 20 19 18 17
26 27 28 29 30 29 29 27 28 29 29 29 28 29 30 30 31 32 32 30 26 28 29 31 29 27 26 28 28 27 26 25 25 25 26 25 24 23 22 21 20 19 19 17
28 29 28 29 29 27 26 26 26 27 28 29 29 30 31 33 30 31 31 31 29 27 29 29 26 27 28 28 27 26 25 24 25 24 24 25 25 24 23 22 21 20 19 19
27 27 27 28 29 28 27 27 26 27 29 29 29 29 31 33 32 31 31 31 30 27 28 29 29 29 28 27 26 26 25 23 22 22 23 23 24 24 24 23 22 21 20 19
28 28 28 28 29 28 28 27 27 27 29 30 29 30 31 32 31 30 30 30 30 29 29 29 29 27 27 27 25 25 25 24 23 22 21 22 23 23 23 23 23 23 21 20

GFSNGP_sfc_30mbdewp_021.txt.gz
Dewpoint
25 22 20 20 21 21 20 21 22 24 23 24 25 27 30 32 32 32 32 33 35 35 34 30 26 29 31 29 27 27 28 27 27 29 29 29 29 27 25 23 20 18 18 18
26 23 21 21 21 21 22 24 24 24 24 26 29 28 31 31 34 35 34 35 36 33 29 25 26 29 28 27 26 26 26 27 27 27 29 29 25 24 20 17 17 18 18 18
26 28 29 28 26 22 22 25 25 24 25 26 28 31 34 35 35 36 36 37 35 28 26 25 27 28 26 26 25 23 25 25 26 28 26 25 22 17 16 17 18 18 18 18
31 31 24 26 25 24 24 24 25 24 25 28 32 35 34 37 37 37 37 36 31 27 25 25 26 28 26 24 24 24 22 25 27 26 26 23 17 16 16 17 17 18 18 18
30 25 24 25 26 26 25 26 27 28 31 32 35 36 33 38 38 36 36 32 28 26 23 22 25 27 25 24 24 21 20 21 24 26 25 20 16 17 18 18 18 18 18 21
31 27 22 26 27 30 30 26 33 34 34 34 35 34 35 39 37 35 30 27 25 24 22 22 22 24 24 23 23 22 19 20 21 23 22 19 18 18 18 18 17 19 23 22
30 28 27 27 30 32 26 31 36 36 38 38 38 38 38 37 32 29 27 25 24 24 23 22 22 22 22 21 22 21 20 22 23 27 27 20 19 19 18 18 20 25 28 26
32 28 26 30 30 33 35 38 39 39 39 38 36 35 32 29 27 24 22 21 22 23 23 23 22 21 20 19 22 26 28 28 33 36 30 21 21 19 19 19 20 24 26 25
30 30 29 31 32 37 39 39 39 39 38 36 32 28 27 24 21 20 19 19 21 21 21 20 20 19 19 21 25 28 29 32 34 30 26 23 23 21 19 18 21 24 21 21
32 30 30 34 37 41 40 39 39 38 34 30 27 24 21 20 17 14 14 15 17 19 18 18 18 18 19 22 27 27 27 27 30 29 26 23 22 18 17 20 22 21 19 19
34 33 35 39 41 41 40 39 37 31 28 26 21 20 17 13 14 14 16 16 18 18 18 18 18 19 22 26 26 25 25 24 23 24 24 26 24 20 20 22 22 18 17 16
34 38 39 40 41 41 39 33 30 25 22 22 20 15 15 17 17 17 18 18 18 17 17 19 20 24 25 26 27 27 25 23 24 25 25 26 22 21 22 23 21 20 18 18
37 39 40 41 41 37 33 27 23 23 21 17 15 15 17 18 19 20 20 18 18 20 21 23 26 26 25 29 28 27 26 26 25 27 27 24 23 23 22 22 25 22 19 17
37 39 38 37 34 30 25 24 22 19 15 15 17 18 18 18 18 18 18 20 22 25 28 27 26 26 28 28 26 26 26 25 26 27 26 25 24 23 22 21 21 20 23 17
35 36 35 31 27 25 22 17 14 15 16 17 16 17 19 21 21 22 23 25 28 29 30 29 27 27 28 27 24 23 22 23 26 27 26 25 25 24 23 22 20 18 17 16
30 28 26 24 21 17 15 16 16 16 16 17 21 23 24 25 26 27 28 29 30 29 29 30 28 28 27 25 22 21 20 25 24 24 25 24 22 22 22 21 20 18 17 17
28 26 24 19 16 16 17 18 19 19 22 24 24 28 29 29 30 28 29 31 33 32 31 30 29 29 27 24 22 21 23 23 25 22 25 23 22 23 22 21 20 19 17 20
23 19 16 16 16 18 20 22 23 24 25 26 30 30 30 30 29 30 30 31 33 32 32 29 28 28 25 23 23 22 22 25 25 26 24 24 24 21 22 22 21 20 18 17
17 16 17 17 20 23 24 23 24 28 30 31 31 30 30 30 30 30 31 31 31 31 32 30 29 24 23 23 23 22 24 24 25 25 25 24 24 25 24 23 22 21 20 17
15 15 17 21 24 27 27 29 30 29 29 29 31 30 29 29 29 29 30 30 31 33 33 29 26 25 25 23 25 21 24 24 24 25 25 25 24 25 24 23 22 21 21 20
19 20 23 28 29 31 30 30 30 30 30 31 31 29 28 28 29 30 29 29 30 34 31 29 26 25 23 23 24 25 26 25 25 25 26 26 25 24 24 24 24 22 22 21
20 22 27 29 30 30 31 32 32 32 31 30 30 28 29 29 30 30 31 31 32 32 31 29 27 26 24 23 20 27 25 24 25 25 25 26 26 24 23 24 23 23 22 21
21 22 26 29 30 30 31 31 31 31 31 29 29 31 30 29 30 29 29 32 33 33 31 30 29 27 25 27 28 28 27 26 26 26 26 26 25 24 24 24 23 22 22 21
24 25 26 29 31 31 30 29 29 29 30 30 32 32 31 30 31 32 34 32 32 29 31 33 31 27 27 29 29 28 28 28 26 27 25 26 28 25 24 24 23 23 22 22
27 28 29 30 30 29 25 25 27 27 28 27 30 31 31 31 30 32 33 32 31 31 31 31 28 27 29 29 29 28 28 27 26 26 24 24 25 26 26 25 24 24 22 22
25 26 25 26 27 27 28 28 28 28 28 29 30 31 32 33 33 33 33 32 32 31 31 32 30 30 30 29 29 28 27 25 26 25 24 23 24 24 25 26 26 25 24 23
25 26 27 28 28 27 28 29 29 28 28 29 29 30 31 32 32 32 32 32 31 32 31 31 31 30 29 29 29 28 27 26 25 24 22 22 23 24 25 25 25 26 26 24

GFSNGP_sfc_30mbdewp_024.txt.gz
Dewpoint
26 20 20 19 20 20 20 21 20 23 21 23 27 28 30 34 35 35 34 35 36 36 35 32 29 27 29 31 28 29 26 27 28 29 30 30 32 31 29 27 22 22 21 22
27 21 20 20 22 23 21 20 21 24 23 25 28 33 34 34 33 34 37 37 35 35 32 28 27 27 29 29 27 27 26 25 26 29 29 29 29 29 26 21 21 21 22 22
26 30 30 29 29 22 22 23 24 24 26 25 32 34 34 35 36 37 37 36 35 33 30 27 27 25 24 28 27 26 26 26 26 31 29 27 26 25 20 21 21 21 21 22
27 31 20 24 23 24 24 24 25 25 25 32 33 34 32 37 38 37 36 34 33 30 27 26 23 23 25 27 28 28 27 29 25 30 28 27 27 23 21 21 21 21 22 23
30 27 25 25 27 28 26 26 28 31 33 34 35 34 31 38 37 36 34 32 28 26 26 25 25 24 23 22 22 22 24 30 32 28 26 28 25 21 21 21 21 22 22 25
31 27 22 25 28 30 29 26 36 36 37 36 35 32 35 36 36 30 28 25 24 24 23 25 24 24 22 21 20 21 27 30 29 27 25 26 29 26 22 22 21 27 27 27
30 27 28 28 30 31 25 32 39 38 38 37 35 36 35 33 30 26 23 21 19 19 20 21 21 21 19 18 17 20 25 28 31 35 36 35 33 25 23 23 23 27 28 28
30 28 25 30 30 32 37 39 40 38 38 37 35 34 29 25 23 21 17 15 14 15 17 19 19 18 17 17 19 23 27 29 30 33 34 33 29 25 24 22 24 25 24 24
32 31 34 35 37 41 41 39 39 38 37 35 32 27 24 22 20 15 15 15 16 16 17 18 18 18 18 19 24 26 26 27 29 33 34 32 32 27 21 21 24 24 22 21
32 32 31 38 41 40 39 38 38 38 33 29 27 22 22 18 15 16 17 17 17 17 17 18 18 19 22 25 26 26 27 26 26 27 28 28 26 24 22 23 23 22 21 19
33 34 35 41 41 41 39 39 37 31 28 24 23 21 17 16 16 17 18 18 18 18 18 19 20 23 25 26 27 28 27 27 26 28 27 27 25 24 22 24 22 20 20 19
35 38 38 40 41 40 38 35 31 24 23 23 19 16 17 18 18 17 17 18 18 19 20 22 24 26 26 27 28 27 27 26 27 27 28 27 25 23 23 23 23 22 20 18
37 40 41 41 41 38 33 30 24 24 21 16 17 17 17 16 16 18 19 20 21 21 24 27 29 29 27 29 29 28 27 26 23 23 28 27 26 25 24 25 25 25 23 20
38 40 38 37 35 33 27 25 22 16 16 17 17 16 16 19 21 21 21 23 25 26 27 28 29 30 31 31 28 26 26 24 26 27 28 27 26 22 25 25 23 23 26 22
37 39 39 39 30 26 23 17 16 16 17 16 16 20 23 23 23 24 25 27 29 29 29 29 30 29 29 28 26 24 24 22 24 24 27 27 25 26 25 24 23 22 21 21
33 30 29 26 23 19 17 16 17 18 17 18 23 26 26 26 26 27 27 28 29 28 31 32 31 30 29 27 25 24 22 24 24 23 26 27 26 24 24 24 23 22 21 22
30 28 25 22 19 18 18 19 21 21 23 26 27 29 29 29 30 28 29 30 29 30 32 33 32 28 29 28 25 23 21 25 26 26 24 27 24 25 25 24 24 23 22 21
27 24 19 18 18 19 22 25 25 26 26 29 29 30 30 30 29 29 28 28 29 30 31 33 33 29 28 26 25 23 22 22 26 27 27 25 26 23 23 25 25 24 24 21
19 18 18 18 20 24 26 26 26 28 29 30 30 30 30 30 28 28 29 29 28 27 30 34 31 28 26 24 23 23 24 26 25 25 26 26 27 25 25 25 25 24 22 22
17 17 19 20 24 26 27 28 29 30 30 30 30 30 29 28 29 29 28 28 29 30 33 33 29 27 26 25 24 23 22 23 25 25 26 26 26 25 26 25 25 25 24 23
20 23 23 26 27 30 30 30 31 30 31 32 31 29 29 29 29 30 30 27 28 32 33 32 29 27 27 26 26 26 26 27 26 26 26 26 26 26 26 26 25 25 25 24
23 23 23 26 28 29 31 31 32 32 32 31 30 30 30 29 30 28 29 30 31 33 33 31 29 28 27 24 23 24 26 27 26 25 26 26 26 25 25 25 25 25 25 24
25 25 25 26 27 29 31 32 31 31 31 31 31 29 29 30 30 29 28 30 34 33 32 33 32 30 28 26 27 27 28 27 27 26 26 26 26 26 26 25 25 25 23 23
26 26 26 27 29 30 30 31 31 32 32 32 31 31 31 31 30 30 31 31 33 32 31 31 32 31 28 29 28 27 28 28 28 27 27 25 26 27 28 26 25 25 25 24
26 27 28 28 29 30 31 31 30 28 29 30 29 30 31 32 30 29 32 32 33 32 31 32 31 30 30 29 28 28 28 28 27 27 26 26 24 25 26 26 27 26 26 25
27 27 28 28 28 29 30 30 29 31 31 29 29 29 31 33 33 32 32 32 32 32 32 32 31 31 30 29 29 29 28 28 27 26 26 26 25 24 25 25 26 27 27 26
28 28 29 29 29 29 29 30 31 32 31 30 29 30 29 29 30 31 31 32 32 31 32 32 32 31 30 30 29 29 29 29 28 26 26 26 24 24 25 25 26 26 26 26

GFSNGP_sfc_30mbdewp_030.txt.gz
Dewpoint
28 24 23 21 20 20 21 23 22 21 25 30 34 34 35 37 37 37 36 36 35 35 35 34 31 27 26 26 28 28 27 29 32 32 32 32 32 34 36 36 34 32 23 22
20 29 26 19 20 25 26 24 24 28 32 35 35 37 37 37 37 36 35 35 35 33 32 31 29 27 25 25 24 25 30 31 33 33 33 34 35 35 36 37 36 25 22 22
8 29 24 12 25 26 23 26 25 23 31 33 34 35 37 37 36 34 35 34 33 31 30 28 25 24 22 22 22 23 29 31 33 33 34 34 35 36 36 36 29 24 24 25
15 22 6 22 28 26 30 34 33 34 34 34 34 37 37 36 33 32 33 32 31 25 23 23 23 22 21 20 20 24 28 31 32 33 33 33 34 35 33 29 31 31 26 26
14 20 18 24 28 27 25 31 36 35 35 35 36 36 36 36 34 33 34 28 19 18 20 19 19 19 20 19 19 25 28 29 29 32 34 34 32 31 31 33 33 27 27 24
27 12 6 22 29 30 29 25 38 38 36 35 33 29 30 35 36 34 19 17 16 16 17 17 18 19 20 19 22 26 27 28 30 33 32 34 34 34 34 34 27 27 25 24
25 20 22 26 31 30 25 22 39 38 37 35 32 31 33 36 27 21 16 17 17 17 17 18 19 20 20 23 25 27 28 28 28 29 31 34 34 33 32 26 25 23 22 23
28 25 17 30 32 28 30 39 38 38 37 35 35 36 34 24 21 17 18 18 18 18 18 20 21 22 24 25 26 27 28 28 27 28 29 33 32 32 27 24 23 22 19 19
28 24 28 34 33 37 40 39 38 37 38 36 35 29 23 19 18 18 18 17 18 19 20 21 23 26 26 26 27 28 28 27 27 27 29 28 26 23 23 23 22 21 20 18
31 31 33 37 40 40 40 39 39 38 38 36 27 23 19 18 17 17 18 19 20 21 22 23 27 28 28 28 28 28 27 26 27 24 26 26 23 23 22 22 21 21 20 19
32 37 40 40 40 39 39 38 39 38 31 24 21 18 18 17 17 20 21 22 23 23 25 26 28 29 29 29 29 28 28 26 25 23 26 26 25 23 23 23 22 22 21 19
30 34 35 37 40 40 39 38 38 26 21 19 19 17 17 18 21 23 23 23 25 26 26 29 29 29 29 31 30 29 28 27 25 22 26 26 25 23 24 25 26 26 25 20
36 41 41 41 40 40 39 34 27 23 20 17 17 19 21 22 23 24 23 25 26 26 29 28 28 29 30 30 28 29 29 26 25 24 23 24 24 23 20 23 23 24 24 26
42 41 40 40 39 39 29 25 21 19 19 19 21 24 24 24 25 24 25 27 28 29 29 28 27 28 29 31 28 28 27 25 24 25 21 22 24 23 23 21 19 22 22 25
41 39 39 39 35 28 21 21 20 19 20 22 24 24 26 26 25 25 28 29 29 27 27 27 26 25 29 31 29 28 25 24 23 24 21 21 22 24 24 21 23 22 21 23
39 38 38 35 27 20 21 21 20 21 22 23 23 24 27 27 27 28 29 29 26 26 26 27 27 28 30 32 30 28 25 24 23 24 23 22 22 22 23 23 21 20 21 21
37 32 24 23 22 22 22 23 23 23 23 23 24 27 27 27 28 27 28 28 27 26 26 26 28 29 30 32 31 28 24 23 24 22 22 22 24 25 25 23 20 21 22 22
29 28 25 25 25 24 25 25 25 24 23 26 26 26 26 27 27 27 27 27 26 26 25 26 27 30 33 32 31 27 24 22 22 20 21 20 21 24 25 24 23 22 22 23
32 31 28 24 24 22 21 20 22 25 26 26 26 26 27 27 28 27 27 26 25 25 25 26 28 31 32 32 30 25 23 20 20 21 21 21 21 22 24 24 24 24 23 22
24 22 21 21 22 21 21 23 25 26 27 28 27 27 28 28 27 26 25 26 26 27 27 28 30 31 31 31 29 24 22 19 19 20 20 20 21 22 24 24 25 24 24 24
21 22 21 23 23 25 25 26 27 27 27 28 28 29 29 28 27 26 26 26 27 27 28 29 31 31 30 30 29 26 25 24 22 21 21 21 20 21 22 23 23 25 22 21
22 22 22 23 24 24 26 27 28 28 28 28 30 28 27 26 27 26 26 27 28 29 28 30 30 31 31 31 29 28 27 25 24 23 23 23 24 22 19 22 23 24 23 20
25 26 26 25 25 25 27 27 27 27 27 28 28 28 29 28 28 27 25 27 29 29 30 30 30 32 31 31 30 29 28 26 24 23 23 23 24 24 24 23 22 24 24 24
25 25 25 26 26 26 25 26 27 28 28 28 28 28 29 29 27 27 28 29 29 29 30 30 31 31 31 30 30 29 28 26 26 26 24 23 24 25 25 24 23 23 24 24
26 26 27 26 26 26 27 28 29 29 29 30 29 29 30 31 29 28 26 27 28 30 29 29 31 31 31 30 29 28 28 27 27 27 26 24 25 26 25 23 22 23 23 24
27 27 27 27 28 28 29 29 29 30 30 29 28 29 31 31 30 28 26 26 28 28 27 27 28 30 30 30 30 30 29 28 28 28 27 26 26 26 25 23 23 22 22 23
28 28 28 28 28 28 28 29 30 30 30 29 29 30 30 30 29 27 27 27 26 23 23 25 26 25 26 27 29 29 30 30 29 28 28 27 27 26 25 24 23 22 23 24

GFSNGP_sfc_30mbdewp_033.txt.gz
Dewpoint
26 25 23 20 19 24 24 23 20 20 23 26 33 34 36 37 37 36 35 35 35 33 33 32 31 27 25 25 25 26 28 30 31 32 32 32 32 34 35 36 36 37 36 35
23 29 27 20 20 21 21 22 25 26 28 34 35 37 37 37 36 35 34 34 33 32 29 27 24 23 23 22 22 25 30 30 32 32 33 34 34 34 35 35 36 37 30 25
10 27 20 14 18 22 25 25 25 27 29 34 35 35 36 36 35 32 33 33 33 26 24 23 22 22 20 20 21 22 28 30 32 33 32 32 33 33 34 35 35 29 30 28
10 18 2 12 26 27 24 30 31 31 33 33 34 36 37 37 32 32 32 33 23 21 20 21 21 19 20 20 20 25 27 29 30 29 32 32 33 33 30 31 33 33 30 26
13 13 14 15 28 28 26 24 34 32 34 34 36 36 35 36 34 33 34 24 17 18 19 18 17 19 20 20 20 25 28 28 28 30 32 32 33 32 33 33 32 27 26 23
23 9 3 10 29 30 29 24 36 35 34 34 36 32 32 36 35 31 19 16 16 17 18 18 19 20 20 19 23 26 27 27 29 28 30 30 33 32 33 32 28 26 23 24
22 16 18 21 30 30 24 15 38 37 36 35 34 33 32 36 32 18 16 17 18 18 18 19 20 21 21 23 25 26 28 28 28 27 28 29 33 31 32 30 26 23 22 23
26 25 16 28 30 27 28 35 38 38 37 36 34 35 36 27 19 18 18 17 18 19 20 22 22 23 24 25 27 27 28 28 27 27 29 29 32 31 26 25 23 22 19 19
27 22 28 31 31 33 36 36 38 38 38 36 36 35 24 18 19 18 17 18 20 20 22 24 25 26 27 27 28 28 28 27 27 26 26 28 25 24 23 23 21 21 21 18
28 27 30 31 37 40 40 39 38 39 38 37 35 26 19 18 18 17 19 20 22 23 24 24 26 28 29 29 29 28 28 27 27 25 24 27 24 23 22 22 21 21 20 20
31 33 39 39 39 39 39 39 39 39 37 33 25 19 18 17 18 20 22 22 24 25 25 26 29 28 29 30 30 28 28 28 27 26 24 26 26 24 23 23 22 22 22 21
24 30 33 33 39 39 38 38 38 30 24 22 20 18 17 19 21 23 22 24 25 25 27 29 28 28 29 31 30 28 28 29 28 26 23 25 24 23 23 25 26 26 26 22
34 36 37 39 40 40 39 39 29 24 20 18 18 18 20 21 24 24 24 25 26 27 29 28 28 27 28 28 30 29 27 29 27 26 24 24 23 23 20 20 22 23 24 26
40 41 40 40 39 40 35 27 24 21 20 20 22 24 24 23 25 24 24 27 28 28 27 27 27 27 26 27 29 31 28 28 26 26 26 22 21 23 23 22 19 20 22 24
41 39 40 40 34 24 22 22 22 23 22 23 24 23 25 25 24 25 27 28 28 27 26 27 26 26 27 29 30 31 29 27 25 22 23 22 22 22 23 24 20 22 20 21
40 39 36 29 25 28 29 31 28 21 23 23 22 22 26 27 26 27 28 28 27 26 26 26 24 25 28 30 31 31 30 29 25 24 24 22 22 21 22 22 22 21 18 19
37 29 28 27 28 30 33 27 23 23 23 21 22 26 26 26 27 26 27 27 27 26 26 26 25 26 29 30 32 31 30 28 24 25 25 23 22 23 23 24 23 21 20 20
31 33 34 34 33 30 26 25 24 23 22 25 26 25 25 25 26 26 27 26 26 25 25 25 26 27 29 31 32 31 29 26 23 22 21 20 20 20 21 22 23 23 22 22
36 35 35 34 31 25 20 19 21 24 25 25 25 25 25 26 26 27 27 25 24 25 26 26 27 28 29 32 31 30 28 25 23 21 20 21 20 19 20 22 23 23 23 23
33 29 25 22 23 22 22 23 25 25 26 27 26 26 26 27 27 27 25 25 26 27 27 27 27 29 29 30 30 29 27 24 21 20 18 19 19 18 19 21 22 23 23 22
22 21 21 22 22 24 25 26 26 26 26 27 27 27 27 28 27 27 26 26 26 27 27 27 28 29 29 29 30 29 27 26 24 22 22 22 21 20 20 20 20 20 21 22
23 23 24 24 24 24 25 26 27 27 26 26 26 27 28 27 27 26 25 26 27 27 28 28 28 29 30 31 30 30 28 26 26 25 24 23 23 23 22 21 20 20 22 22
25 25 25 24 24 25 26 26 25 26 27 27 27 27 27 27 28 27 27 26 26 27 28 28 28 28 30 31 30 30 29 27 27 26 25 24 24 24 23 23 23 22 22 22
24 25 25 26 26 26 25 26 27 28 28 28 28 28 28 27 28 27 28 30 27 26 27 28 26 26 28 28 29 28 29 28 28 27 26 25 25 23 23 24 24 23 23 23
26 26 27 26 26 26 27 28 28 28 28 29 29 28 27 28 28 29 29 28 26 26 27 26 25 25 27 27 29 29 29 29 28 27 27 26 25 24 24 25 25 24 22 22
28 28 28 28 28 28 28 28 28 28 28 28 28 27 27 28 31 30 28 26 25 25 22 23 23 20 18 19 19 19 22 25 28 29 28 27 27 26 26 26 25 24 23 22
26 26 26 26 26 26 25 26 26 26 27 28 28 28 28 30 29 28 27 23 22 22 21 20 17 17 16 15 15 15 18 20 22 25 27 28 28 27 27 26 25 24 23 23

GFSNGP_sfc_30mbdewp_036.txt.gz
Dewpoint
25 26 23 19 19 25 23 22 17 16 21 23 31 33 34 35 36 36 35 35 34 33 32 31 27 25 24 23 23 24 26 29 30 32 33 33 33 33 33 34 35 36 37 36
24 28 27 22 21 21 24 23 24 24 22 30 34 36 36 36 36 35 34 33 33 31 28 24 22 21 21 20 21 23 27 29 32 32 32 31 32 32 33 33 34 37 28 26
16 25 18 12 17 19 22 25 22 19 21 34 34 35 36 36 36 34 33 33 33 26 22 22 21 20 18 20 22 22 27 30 30 31 29 31 32 33 32 30 31 31 30 29
7 14 -3 7 26 25 23 25 27 28 30 33 34 36 37 37 36 33 33 33 27 22 21 21 20 19 19 20 21 23 26 28 28 28 29 32 31 32 31 32 34 32 30 24
9 11 10 9 23 26 25 22 31 30 32 34 36 36 36 38 34 31 32 32 21 19 19 18 18 19 20 20 19 23 27 27 27 29 28 29 29 32 31 32 32 28 25 23
20 6 -2 8 27 30 28 22 30 33 33 34 35 31 32 36 35 34 31 18 16 18 18 18 19 20 20 20 22 25 26 27 28 28 27 27 28 31 30 32 31 26 23 24
19 14 15 19 29 30 21 15 33 35 34 35 33 34 33 36 35 26 17 17 17 18 18 20 21 22 21 23 25 26 27 28 28 27 27 28 30 30 31 30 28 23 22 23
24 22 13 26 30 26 27 30 33 36 35 35 35 33 35 32 20 17 18 18 18 19 20 23 24 24 24 25 27 28 28 28 28 27 26 28 29 32 27 26 23 22 19 19
25 20 26 28 31 33 34 33 36 37 37 37 35 35 30 21 21 19 17 18 20 21 22 24 25 27 27 28 29 29 28 28 27 27 25 25 26 24 25 24 22 21 21 19
26 24 28 31 31 37 38 36 38 39 38 38 36 32 23 21 19 17 19 20 22 22 23 24 28 29 28 28 29 29 28 28 28 27 26 25 26 24 23 22 21 21 21 21
29 30 32 34 37 36 38 39 39 39 38 36 32 24 19 18 18 19 21 22 23 24 24 25 29 28 28 29 30 29 29 28 29 29 27 24 25 25 25 24 22 22 22 22
22 26 30 30 35 39 39 39 39 35 32 26 23 22 20 19 21 22 22 22 24 25 26 28 28 27 27 28 28 29 29 28 29 29 27 24 24 23 24 24 24 26 27 24
30 37 35 38 39 40 39 39 31 27 24 22 21 22 20 21 23 23 23 24 25 26 28 27 26 27 27 27 27 28 29 29 29 29 27 26 24 24 22 23 22 23 24 24
38 39 38 40 39 39 35 26 23 23 26 30 26 23 23 22 25 24 23 25 27 28 27 26 26 26 27 27 27 29 30 30 29 27 27 27 26 22 22 21 20 19 21 23
40 40 39 34 26 24 24 27 31 33 30 26 25 23 24 23 25 24 26 27 28 27 26 26 26 26 26 26 28 30 31 30 29 27 24 23 24 24 23 22 23 21 20 20
38 30 27 28 31 33 34 34 33 30 25 24 23 22 24 27 26 26 27 27 26 24 25 26 25 25 26 27 29 30 31 31 29 27 26 25 25 22 21 22 22 22 22 19
31 29 30 33 33 33 33 33 31 28 25 23 21 24 26 26 26 26 26 27 26 25 25 25 25 26 26 27 28 30 31 30 29 27 26 25 25 23 21 21 22 22 22 20
34 35 35 34 33 32 32 29 25 23 21 23 26 25 25 24 24 25 25 26 26 25 25 25 25 26 27 28 29 30 29 29 28 26 25 23 21 20 20 19 20 21 22 21
36 35 34 34 34 30 21 18 20 24 25 25 25 25 25 25 25 26 26 26 26 24 26 26 26 26 27 28 29 30 28 28 26 24 23 22 20 19 19 18 18 20 22 22
33 32 27 23 23 22 23 24 26 26 26 26 26 26 26 26 26 26 25 26 26 27 27 26 26 27 27 28 29 28 28 28 25 23 23 21 20 19 19 18 18 19 20 21
21 22 22 23 23 24 25 25 25 24 26 26 26 26 25 26 26 26 25 25 27 26 26 26 26 27 27 28 29 29 29 28 25 24 23 23 22 21 21 21 21 21 20 19
23 24 24 24 24 24 25 26 26 26 25 25 25 25 25 26 26 26 26 26 28 27 27 27 27 27 27 28 28 28 29 29 28 26 24 24 24 23 23 23 22 22 21 20
24 24 25 24 25 25 26 25 25 25 26 26 26 26 27 27 27 26 25 27 26 27 28 27 28 28 26 28 28 27 26 26 27 27 27 26 25 25 24 24 24 23 23 23
25 26 27 27 26 27 27 28 28 28 27 27 27 27 27 27 27 26 27 27 27 29 26 27 27 24 24 25 26 27 28 28 27 27 27 26 26 25 25 24 24 24 24 23
27 28 27 27 27 26 26 25 25 25 25 26 26 27 27 27 26 27 28 28 28 25 24 24 22 19 17 17 17 16 16 17 19 20 22 26 27 26 24 24 24 24 25 24
25 26 25 26 24 21 21 21 21 21 21 22 22 24 26 28 27 28 30 28 25 23 22 20 16 14 13 13 12 13 13 15 16 16 18 20 23 25 26 26 26 26 25 24
22 21 20 20 20 18 18 18 18 18 20 21 21 21 25 28 29 29 28 24 22 21 18 15 14 13 11 10 9 10 9 10 10 10 11 12 12 14 21 27 27 27 24 23